User: anonymous   Login
Location: Downe
(51.3167°N, 0.0500°E)
Time: 13:37:52
(UTC+00:00)
Language:

Tsikada Rocket - Orbit

View from above orbital plane
View from above orbital plane
View from above satellite
View from above satellite

Ground track
Ground track

The orbit data is extracted from the following two-line orbital elements,

1 23466U 95002D   20021.27677223 +.00000008 +00000-0 -75344-5 0  9995
2 23466 082.9251 282.2919 0035913 078.6566 038.5558 13.74432959253261
Epoch (UTC): 21 January 2020 06:38:33
Eccentricity: 0.0035913
inclination: 82.9251°
perigee height: 957 km
apogee height: 1010 km
right ascension of ascending node: 282.2919°
argument of perigee: 78.6566°
revolutions per day: 13.74432959
mean anomaly at epoch: 38.5558°
orbit number at epoch: 25326

The dashed part of the orbit path shows where the satellite is in the earth's shadow,  

DLR